This is the latest recevied weather packets stored in our database for station/object K5RWS. If no packets are shown the sender has not sent any weather packets the latest 10 day(s).
| Time | Temp. | Humidity | Pressure | Rain* | Wind** | Luminosity | Snow |
|---|---|---|---|---|---|---|---|
| 1777015564 | 5.56° C | 25% | 1015.9 hPa | 0 mm | - | 0 W/m² | - |
| 1777015260 | 6.11° C | 24% | 1016 hPa | 0 mm | - | 0 W/m² | - |
| 1777014955 | 7.22° C | 24% | 1015.9 hPa | 0 mm | - | 0 W/m² | - |
| 1777014650 | 8.89° C | 24% | 1015.5 hPa | 0 mm | - | 0 W/m² | - |
| 1777014349 | 9.44° C | 22% | 1015.7 hPa | 0 mm | - | 0 W/m² | - |
| 1777014046 | 9.44° C | 22% | 1015.6 hPa | 0 mm | - | 0 W/m² | - |
| 1777013743 | 8.89° C | 22% | 1015.6 hPa | 0 mm | - | 0 W/m² | - |
| 1777013440 | 7.78° C | 23% | 1015.7 hPa | 0 mm | - | 0 W/m² | - |
| 1777013138 | 7.22° C | 23% | 1015.9 hPa | 0 mm | - | 0 W/m² | - |
| 1777012834 | 7.22° C | 23% | 1015.7 hPa | 0 mm | - | 0 W/m² | - |
| 1777012529 | 7.22° C | 24% | 1015.7 hPa | 0 mm | - | 0 W/m² | - |
| 1777012226 | 7.22° C | 24% | 1015.6 hPa | 0 mm | - | 0 W/m² | - |
| 1777011922 | 7.78° C | 23% | 1015.6 hPa | 0 mm | - | 0 W/m² | - |
| 1777011618 | 8.33° C | 22% | 1015.6 hPa | 0 mm | - | 0 W/m² | - |
| 1777011315 | 7.78° C | 23% | 1015.6 hPa | 0 mm | - | 0 W/m² | - |
| 1777011011 | 7.22° C | 23% | 1015.4 hPa | 0 mm | - | 0 W/m² | - |
| 1777010709 | 7.22° C | 23% | 1015.5 hPa | 0 mm | - | 0 W/m² | - |
| 1777010404 | 7.78° C | 23% | 1015.6 hPa | 0 mm | - | 0 W/m² | - |
| 1777010101 | 8.33° C | 22% | 1015.5 hPa | 0 mm | - | 0 W/m² | - |
| 1777009797 | 9.44° C | 21% | 1015.4 hPa | 0 mm | - | 0 W/m² | - |
| 1777009495 | 8.89° C | 22% | 1015 hPa | 0 mm | - | 0 W/m² | - |
| 1777009189 | 8.89° C | 21% | 1015 hPa | 0 mm | - | 0 W/m² | - |
| 1777008887 | 9.44° C | 20% | 1015 hPa | 0 mm | - | 0 W/m² | - |
| 1777008583 | 10° C | 20% | 1015 hPa | 0 mm | - | 0 W/m² | - |
| 1777008280 | 11.11° C | 20% | 1014.9 hPa | 0 mm | - | 0 W/m² | - |
* Rain latest hour (hover to see other rain measurements)
** Current wind speed in m/s (hover to see current wind gust speed)